sat.trackr.live / text

‹ back to catalog

STARLINK-35889

NORAD 67189 · 2025-303AC

PAYLOAD ACTIVE UNKNOWN

§ Identity

Operator
Country
US
Launch date
2025-12-17
Launch site
AFETR
Launch vehicle
Mass (kg)
RCS (m²)

Purposes: comms

External: N2YO · Heavens-Above · Gunter

§ Orbital elements

Epoch: 2026-09-20T03:59:10.887072Z

Period
94.27 min
Inclination
42.9992°
Eccentricity
0.0001536
Mean motion
15.27581075 rev/d
Perigee alt
482.0 km
Apogee alt
484.1 km
Semi-major
6,861.2 km
B*
1.4829e-4
RAAN
292.7668°
Arg perigee
273.0719°
Mean anomaly
86.9957°
Rev number
4,247

§ Raw data

STARLINK-358891 67189U 25303AC  26263.16609823  .00003821  00000+0  14829-3 0  99982 67189  42.9992 292.7668 0001536 273.0719  86.9957 15.27581075 42474

JSON: /api/v1/satellites/67189 · /tle

For live sub-satellite position, see the globe view (requires WebGL).

§ Visibility from observer

Set your observer location to see the next 7 days of passes ≥ 10°. The values pass through the URL so the page stays shareable.

No JS? Fill the form by hand. The geolocation button needs JavaScript.